Delta Virtual Airport Information Service

Cleveland Hopkins International Airport

ICAO: KCLE Country: United States
Latitude: 41.4103 Longitude: -81.8539
Latest Arrival : JZA8539 (CYYZ-KCLE) Latest Departure : EDV5397 (1B) (KCLE-KJFK)


WX CaptureLIVE
Data provided by noaa.gov | Fetched at 08:54:19

METAR : KCLE 041415Z 01014KT 9SM -SN SCT013 BKN025 OVC033 00/M04 A3012 RMK AO2 P0000 T00001039 $

TAF : KCLE 041138Z 0412/0518 35008KT P6SM SCT018 BKN030 TEMPO 0412/0416 OVC018 FM041700 34010G20KT P6SM BKN025 FM042100 35012G22KT P6SM BKN035 FM050000 34010KT P6SM SCT035


Runway Data for KCLE
Data provided by openaviationdata.com

Runway ID Mag Var Hdg Length Elevation Surface ILS Freq ILS Id ILS Slope
06L -7 56° 8995 ft 791 ft Concrete 111.55 ILIZ 3
06R -7 56° 8993 ft 791 ft Concrete 111.9 ICLE 3
06C -7 56° 7091 ft 791 ft Concrete -- -- --
10 -7 100° 6008 ft 791 ft Asphalt -- -- --
24L -7 236° 8993 ft 791 ft Concrete 109.9 IHPI 3
24R -7 236° 8995 ft 791 ft Concrete 111.55 IPVY 3
24C -7 236° 7091 ft 791 ft Concrete -- -- --
28 -7 280° 6008 ft 791 ft Asphalt 110.7 IPXP 3

Cleveland Hopkins International Airport, United States
Use only for reference purposes



Not for navigational purposes.